GW0507 Weather Reports


time (UTC)temp
C
wind
direction
speed
KPH
gust
KPH
rain 1hr
cm
rain 24hr
cm
rain mn
cm
humidity
%
barometer
mb
20260508203031 13 60 12.9 22.5 0.00 0.46 0.00 50 1001.3
20260508201536 13 22 14.5 27.4 0.00 0.46 0.00 50 1001.2
20260508200035 13 350 9.7 25.7 0.00 0.46 0.00 48 1001.0
20260508194535 13 24 16.1 29.0 0.00 1.12 0.00 49 1001.0
20260508193044 13 360 16.1 30.6 0.00 1.12 0.00 49 1000.8
20260508191540 13 43 12.9 22.5 0.00 1.12 0.00 63 1000.8
20260508190036 13 40 16.1 24.1 0.00 1.12 0.00 59 1000.6
20260508184535 12 36 12.9 24.1 0.00 1.78 0.00 65 1000.8
20260508183034 12 61 19.3 25.7 0.00 1.78 0.00 68 1000.9
20260508181534 12 68 22.5 29.0 0.00 1.78 0.00 67 1000.9
20260508180041 12 71 17.7 27.4 0.00 1.78 0.00 65 1000.9
20260508174539 12 78 14.5 24.1 0.00 1.80 0.00 68 1001.1
20260508173035 12 51 16.1 22.5 0.00 1.80 0.00 67 1001.2
20260508171542 12 41 14.5 20.9 0.00 1.80 0.00 68 1001.3
20260508170043 12 57 11.3 20.9 0.00 1.80 0.00 67 1001.2
20260508164543 12 46 11.3 19.3 0.00 1.80 0.00 70 1001.2
20260508163041 11 42 12.9 22.5 0.00 1.80 0.00 70 1001.2
20260508161535 11 58 16.1 22.5 0.00 1.80 0.00 70 1000.9
20260508160037 12 15 14.5 22.5 0.00 1.80 0.00 69 1001.0
20260508154541 12 74 9.7 22.5 0.00 1.80 0.00 68 1001.0
20260508153037 12 55 16.1 22.5 0.00 1.80 0.00 73 1001.0
20260508151541 11 57 14.5 29.0 0.00 1.80 0.00 76 1001.2
20260508150041 11 71 22.5 27.4 0.00 1.80 0.00 75 1001.4
20260508144537 11 67 19.3 25.7 0.00 1.80 0.00 77 1001.4
20260508143034 9 192 3.2 14.5 0.00 1.80 0.00 84 1002.0
20260508141536 11 71 9.7 16.1 0.00 1.80 0.00 85 1001.9
20260508140035 10 83 3.2 12.9 0.00 1.80 0.00 90 1002.6
20260508134535 10 84 11.3 17.7 0.00 1.80 0.00 90 1002.6
20260508133034 9 214 3.2 11.3 0.00 1.80 0.00 95 1002.3
20260508131539 9 236 4.8 17.7 0.00 1.80 0.00 96 1002.2
20260508130036 6 90 14.5 19.3 0.00 1.80 0.00 95 1002.3
20260508124534 6 82 14.5 19.3 0.00 1.85 0.00 95 1002.3
20260508123034 6 104 11.3 20.9 0.00 1.85 0.00 96 1002.2
20260508121535 6 96 12.9 16.1 0.00 1.85 0.00 96 1002.4
20260508120040 6 83 11.3 16.1 0.00 1.85 0.00 96 1002.6
20260508114541 6 88 9.7 14.5 0.00 1.96 0.00 96 1002.2
20260508113041 6 172 1.6 6.4 0.00 1.96 0.00 97 1002.4
20260508111542 6 0 0.0 4.8 0.00 1.96 0.00 97 1002.6
20260508110041 5 0 0.0 4.8 0.00 1.96 0.00 97 1003.0
20260508104541 5 0 0.0 4.8 0.00 1.96 0.00 97 1002.9
20260508103041 5 0 0.0 4.8 0.00 1.96 0.00 97 1003.0
20260508101536 5 256 1.6 6.4 0.00 1.96 0.00 97 1002.6
20260508100035 5 296 4.8 11.3 0.00 1.96 0.00 97 1002.6
20260508094535 4 257 3.2 4.8 0.00 1.96 0.00 97 1002.6
20260508093041 4 347 1.6 6.4 0.00 1.96 0.00 97 1002.3
20260508091550 3 102 0.0 4.8 0.00 1.96 0.00 97 1002.5
20260508090042 3 103 0.0 6.4 0.00 1.96 0.00 97 1002.3
20260508084535 3 273 1.6 4.8 0.00 1.96 0.00 97 1001.8
20260508083037 4 271 3.2 4.8 0.00 1.96 0.00 97 1001.7
20260508081544 4 0 1.6 4.8 0.00 1.96 0.00 97 1001.5
20260508080034 4 219 0.0 3.2 0.00 1.96 0.00 97 1001.5
20260508074534 4 219 3.2 6.4 0.00 1.96 0.00 97 1001.6
20260508073034 4 0 0.0 4.8 0.00 1.96 0.00 97 1001.7
20260508071536 4 0 0.0 4.8 0.00 1.96 0.00 97 1001.8
20260508070036 4 0 0.0 4.8 0.00 1.96 0.00 96 1001.8
20260508064536 5 263 1.6 6.4 0.00 1.96 0.00 96 1001.7
20260508063035 5 269 1.6 4.8 0.00 1.96 0.00 97 1001.8
20260508061534 4 182 3.2 4.8 0.00 1.96 0.00 96 1001.6
20260508060034 4 137 1.6 4.8 0.00 1.96 0.00 96 1001.6
20260508054541 5 173 1.6 8.0 0.00 1.96 0.00 96 1001.6
20260508053036 5 249 4.8 6.4 0.00 1.96 0.00 96 1001.6
20260508051538 5 0 0.0 4.8 0.00 1.96 0.00 97 1001.5
20260508050035 5 84 1.6 9.7 0.00 1.96 0.00 96 1001.7
20260508044541 5 252 1.6 3.2 0.00 1.96 0.00 96 1001.7
20260508043049 5 252 0.0 3.2 0.00 1.96 0.00 96 1001.7
20260508041539 6 252 1.6 11.3 0.00 1.96 0.00 96 1001.7
20260508040037 6 245 4.8 11.3 0.00 1.96 0.00 96 1001.7
20260508034547 6 237 6.4 11.3 0.00 1.96 0.00 96 1001.8
20260508033041 6 296 3.2 11.3 0.00 1.96 0.00 96 1001.8
20260508031541 6 248 4.8 9.7 0.00 1.96 0.00 96 1002.0
20260508030038 7 221 1.6 8.0 0.00 1.96 0.00 96 1002.0
20260508024535 7 5 6.4 11.3 0.00 1.96 1.96 97 1002.2
20260508023035 7 68 3.2 16.1 0.00 1.96 1.96 96 1001.9
20260508021538 7 75 4.8 9.7 0.00 1.96 1.96 96 1002.1
20260508020042 8 223 1.6 6.4 0.00 1.96 1.96 96 1002.0
20260508014534 10 302 8.0 16.1 0.00 1.96 1.96 97 1001.6
20260508013033 9 312 8.0 16.1 0.00 1.96 1.96 97 1001.5
20260508011535 8 170 3.2 16.1 0.00 1.96 1.96 97 1001.2
20260508010035 7 33 4.8 6.4 0.00 1.96 1.96 96 1001.4
20260508004538 7 15 4.8 8.0 0.00 1.96 1.96 97 1001.4
20260508003033 7 338 3.2 6.4 0.00 1.96 1.96 97 1001.6
20260508001533 7 100 11.3 16.1 0.00 1.96 1.96 96 1001.5
20260508000040 7 313 1.6 12.9 0.00 1.96 1.96 96 1001.7
20260507234539 8 156 14.5 19.3 0.00 1.96 1.96 97 1001.4
20260507233034 8 66 3.2 6.4 0.00 1.96 1.96 96 1001.4
20260507231540 8 24 3.2 6.4 0.00 1.96 1.96 96 1001.5
20260507230033 7 53 4.8 8.0 0.00 1.96 1.96 96 1001.7
20260507224535 7 90 4.8 12.9 0.00 1.96 1.96 96 1001.4
20260507223035 8 133 1.6 8.0 0.00 1.96 1.96 96 1001.3
20260507221534 7 44 3.2 8.0 0.00 1.96 1.96 97 1001.7
20260507220041 6 120 16.1 24.1 0.00 1.96 1.96 95 1001.8
20260507214541 7 106 4.8 14.5 0.03 1.96 1.96 95 1002.0
20260507213045 7 119 19.3 24.1 0.10 1.96 1.96 95 1001.7
20260507211536 8 200 11.3 22.5 0.33 1.96 1.96 95 1002.5
20260507210045 9 189 11.3 24.1 0.43 1.96 1.96 96 1001.8
20260507204545 9 151 12.9 20.9 0.58 1.93 1.93 96 1001.7